GW2011 Weather Reports


Display with metric or nautical units.
time (UTC)temp
F
wind
direction
speed
MPH
gust
MPH
rain 1hr
in
rain 24hr
in
rain mn
in
humidity
%
barometer
mb
20260905175020 71 92 1.0 3.0 0.00 0.00 0.00 88 1014.2
20260905174539 71 97 1.0 4.0 0.00 0.00 0.00 88 1014.3
20260905174018 70 80 1.0 8.0 0.00 0.00 0.00 88 1014.4
20260905173518 70 129 2.0 8.0 0.00 0.00 0.00 88 1014.5
20260905173042 70 128 1.0 7.0 0.00 0.00 0.00 88 1014.7
20260905172520 70 131 4.0 8.0 0.00 0.00 0.00 89 1015.1
20260905172018 70 142 4.0 8.0 0.00 0.00 0.00 88 1015.2
20260905171537 70 128 2.0 9.0 0.00 0.00 0.00 88 1015.1
20260905171018 69 122 4.0 9.0 0.00 0.00 0.00 89 1015.0
20260905170519 69 97 0.0 4.0 0.00 0.00 0.00 88 1015.0
20260905170038 69 110 0.0 4.0 0.00 0.00 0.00 89 1015.0
20260905165518 69 115 1.0 4.0 0.00 0.00 0.00 89 1014.8
20260905165021 69 98 1.0 4.0 0.00 0.00 0.00 89 1014.7
20260905164537 69 98 0.0 4.0 0.00 0.00 0.00 89 1014.8
20260905164018 69 78 1.0 4.0 0.00 0.00 0.00 89 1014.7
20260905163521 68 97 1.0 3.0 0.00 0.00 0.00 90 1014.8
20260905163042 68 128 1.0 3.0 0.00 0.00 0.00 90 1014.8
20260905162518 68 115 1.0 4.0 0.00 0.00 0.00 90 1014.8
20260905162018 68 115 1.0 6.0 0.00 0.00 0.00 90 1014.9
20260905161539 67 223 2.0 6.0 0.00 0.00 0.00 92 1014.7
20260905161020 67 93 1.0 5.0 0.00 0.00 0.00 90 1014.7
20260905160519 67 85 1.0 5.0 0.00 0.00 0.00 92 1014.6
20260905160037 67 103 1.0 4.0 0.00 0.00 0.00 92 1014.7
20260905155520 66 64 1.0 4.0 0.00 0.00 0.00 92 1014.6
20260905155022 66 121 1.0 9.0 0.00 0.00 0.00 92 1014.6
20260905154552 66 56 1.0 9.0 0.00 0.00 0.00 92 1014.6
20260905154018 66 126 1.0 6.0 0.00 0.00 0.00 93 1014.6
20260905153520 65 67 2.0 6.0 0.00 0.00 0.00 93 1014.4
20260905153039 65 0 1.0 4.0 0.00 0.00 0.00 94 1014.6
20260905152520 65 53 1.0 4.0 0.00 0.00 0.00 93 1014.7
20260905152022 65 88 1.0 4.0 0.00 0.00 0.00 94 1014.9
20260905151538 64 44 1.0 3.0 0.00 0.00 0.00 93 1014.8
20260905151017 64 57 1.0 4.0 0.00 0.00 0.00 94 1014.9
20260905150518 64 82 1.0 4.0 0.00 0.00 0.00 95 1014.8
20260905150042 64 62 1.0 3.0 0.00 0.00 0.00 94 1014.6
20260905145523 64 46 1.0 3.0 0.00 0.00 0.00 94 1014.4
20260905145020 64 63 0.0 3.0 0.00 0.00 0.00 95 1014.6
20260905144541 64 62 1.0 3.0 0.00 0.00 0.00 95 1014.4
20260905144019 64 66 0.0 3.0 0.00 0.00 0.00 94 1014.7
20260905143519 64 63 1.0 3.0 0.00 0.00 0.00 95 1014.8
20260905143039 64 71 0.0 3.0 0.00 0.00 0.00 94 1015.1
20260905142519 64 80 1.0 4.0 0.00 0.00 0.00 95 1015.0
20260905142020 64 17 1.0 4.0 0.00 0.00 0.00 95 1014.8
20260905141540 63 94 1.0 4.0 0.00 0.00 0.00 95 1014.7
20260905141023 63 80 1.0 3.0 0.00 0.00 0.00 95 1015.0
20260905140522 63 71 1.0 3.0 0.00 0.00 0.00 95 1014.9
20260905140041 63 87 0.0 3.0 0.00 0.00 0.00 95 1015.1
20260905135519 63 0 0.0 2.0 0.00 0.00 0.00 95 1015.2
20260905135018 63 0 0.0 3.0 0.00 0.00 0.00 95 1015.2
20260905134545 63 0 1.0 3.0 0.00 0.00 0.00 95 1014.7
20260905134020 63 65 0.0 4.0 0.00 0.00 0.00 95 1014.6
20260905133523 63 97 1.0 4.0 0.00 0.00 0.00 95 1014.5
20260905133037 63 57 1.0 4.0 0.00 0.00 0.00 95 1014.6
20260905132519 63 62 1.0 4.0 0.00 0.00 0.00 95 1014.4
20260905132020 63 56 2.0 8.0 0.00 0.00 0.00 95 1014.1
20260905131539 63 82 2.0 8.0 0.00 0.00 0.00 95 1014.0
20260905131020 64 88 2.0 7.0 0.00 0.00 0.00 96 1013.9
20260905130522 63 101 2.0 5.0 0.00 0.00 0.00 96 1013.8
20260905130039 63 67 1.0 7.0 0.00 0.00 0.00 96 1013.9
20260905125519 63 34 1.0 7.0 0.00 0.00 0.00 96 1014.0
20260905125019 63 57 1.0 3.0 0.00 0.00 0.00 96 1013.8
20260905124537 63 66 1.0 3.0 0.00 0.00 0.00 95 1013.8
20260905124017 63 40 1.0 3.0 0.00 0.00 0.00 95 1013.6
20260905123516 63 54 1.0 3.0 0.00 0.00 0.00 96 1013.5
20260905123036 63 44 1.0 4.0 0.00 0.00 0.00 95 1013.5
20260905122522 63 65 1.0 4.0 0.00 0.00 0.00 95 1013.3
20260905122025 63 76 1.0 3.0 0.00 0.00 0.00 95 1013.3
20260905121540 63 45 1.0 4.0 0.00 0.00 0.00 95 1013.2
20260905121021 63 55 1.0 4.0 0.00 0.00 0.00 96 1013.1
20260905120517 63 65 1.0 5.0 0.00 0.00 0.00 95 1013.1
20260905120038 63 59 1.0 5.0 0.00 0.00 0.00 95 1013.2
20260905115518 62 65 1.0 3.0 0.00 0.00 0.00 95 1013.2
20260905115017 62 92 1.0 2.0 0.00 0.00 0.00 95 1013.3
20260905114537 62 53 1.0 2.0 0.00 0.00 0.00 95 1013.4
20260905114017 62 85 0.0 3.0 0.00 0.00 0.00 95 1013.4
20260905113519 62 62 1.0 3.0 0.00 0.00 0.00 95 1013.3
20260905113037 62 68 1.0 3.0 0.00 0.00 0.00 95 1013.4
20260905112520 63 63 0.0 3.0 0.00 0.00 0.00 95 1013.2
20260905112019 62 64 1.0 3.0 0.00 0.00 0.00 95 1013.2
20260905111538 63 0 1.0 3.0 0.00 0.00 0.00 95 1013.1
20260905111021 63 72 0.0 3.0 0.00 0.00 0.00 95 1013.1
20260905110518 63 141 1.0 3.0 0.00 0.00 0.00 95 1013.1
20260905110039 63 132 1.0 4.0 0.00 0.00 0.00 95 1013.1
20260905105517 63 140 1.0 4.0 0.00 0.00 0.00 95 1013.1
20260905105021 63 98 1.0 4.0 0.00 0.00 0.00 95 1013.1
20260905104536 63 59 1.0 4.0 0.00 0.00 0.00 95 1012.9
20260905104017 63 61 1.0 4.0 0.00 0.00 0.00 95 1013.0
20260905103517 63 100 1.0 3.0 0.00 0.00 0.00 95 1013.0
20260905103044 64 88 1.0 10.0 0.00 0.00 0.00 96 1013.1
20260905102519 64 117 4.0 12.0 0.00 0.00 0.00 95 1013.2
20260905102019 64 132 3.0 12.0 0.00 0.00 0.00 95 1013.0
20260905101537 64 117 3.0 9.0 0.00 0.00 0.00 96 1013.0
20260905101016 63 0 1.0 11.0 0.00 0.00 0.00 95 1013.0
20260905100520 63 74 1.0 11.0 0.00 0.00 0.00 95 1012.8
20260905100040 64 119 4.0 11.0 0.00 0.00 0.00 95 1012.9
20260905095517 63 119 1.0 7.0 0.00 0.00 0.00 95 1012.7
20260905095020 63 115 1.0 11.0 0.00 0.00 0.00 95 1012.5
20260905094540 64 72 6.0 11.0 0.00 0.00 0.00 95 1012.7
20260905094019 63 128 6.0 10.0 0.00 0.00 0.00 95 1012.6
20260905093518 63 139 2.0 7.0 0.00 0.00 0.00 94 1013.0
20260905093048 63 55 1.0 4.0 0.00 0.00 0.00 95 1012.5
20260905092517 63 77 1.0 6.0 0.00 0.00 0.00 94 1012.2
20260905092019 64 68 1.0 6.0 0.00 0.00 0.00 94 1011.8
20260905091540 64 59 2.0 5.0 0.00 0.00 0.00 94 1011.8
20260905091022 64 117 2.0 5.0 0.00 0.00 0.00 95 1012.0
20260905090518 63 0 1.0 3.0 0.00 0.00 0.00 94 1012.0
20260905090038 64 70 1.0 6.0 0.00 0.00 0.00 93 1011.9
20260905085521 64 117 2.0 6.0 0.00 0.00 0.00 94 1011.9
20260905085018 63 80 1.0 3.0 0.00 0.00 0.00 93 1012.2
20260905084541 64 34 1.0 3.0 0.00 0.00 0.00 94 1012.4
20260905084021 64 91 1.0 4.0 0.00 0.00 0.00 94 1012.4
20260905083520 64 58 1.0 4.0 0.00 0.00 0.00 94 1012.5
20260905083041 64 28 1.0 3.0 0.00 0.00 0.00 93 1012.5
20260905082517 64 33 0.0 4.0 0.00 0.00 0.00 93 1012.7
20260905082018 64 82 1.0 6.0 0.00 0.00 0.00 94 1012.7
20260905081538 64 123 0.0 6.0 0.00 0.00 0.00 93 1012.6
20260905081019 65 105 1.0 6.0 0.00 0.00 0.00 95 1012.7
20260905080517 64 0 1.0 4.0 0.00 0.00 0.00 93 1012.7
20260905080040 64 0 1.0 4.0 0.00 0.00 0.00 94 1012.5
20260905075518 64 88 1.0 3.0 0.00 0.00 0.00 94 1012.5
20260905075021 64 115 0.0 3.0 0.00 0.00 0.00 93 1012.7
20260905074537 64 47 0.0 2.0 0.00 0.00 0.00 93 1012.7
20260905074019 63 0 0.0 2.0 0.00 0.00 0.00 93 1012.7
20260905073519 63 44 0.0 2.0 0.00 0.00 0.00 92 1012.7
20260905073038 64 44 0.0 1.0 0.00 0.00 0.00 92 1012.7
20260905072518 64 0 0.0 1.0 0.00 0.00 0.00 92 1012.8
20260905072019 64 0 0.0 2.0 0.00 0.00 0.00 91 1012.8
20260905071540 64 44 0.0 2.0 0.00 0.00 0.00 91 1013.1
20260905071021 64 44 0.0 2.0 0.00 0.00 0.00 91 1012.8
20260905070520 64 44 0.0 2.0 0.00 0.00 0.00 91 1012.9
20260905070039 64 0 0.0 0.0 0.00 0.00 0.00 90 1012.8
20260905065526 64 0 0.0 0.0 0.00 0.00 0.00 90 1013.1
20260905065020 64 0 0.0 0.0 0.00 0.00 0.00 91 1013.1
20260905064540 65 0 0.0 0.0 0.00 0.00 0.00 90 1013.1
20260905064019 65 0 0.0 2.0 0.00 0.00 0.00 90 1013.0
20260905063520 65 0 0.0 2.0 0.00 0.00 0.00 90 1013.0
20260905063038 65 44 0.0 2.0 0.00 0.00 0.00 90 1013.0
20260905062517 65 63 0.0 2.0 0.00 0.00 0.00 90 1013.0
20260905062020 65 63 0.0 3.0 0.00 0.00 0.00 90 1013.0
20260905061542 65 130 0.0 3.0 0.00 0.00 0.00 90 1013.0
20260905061020 65 46 1.0 3.0 0.00 0.00 0.00 90 1013.1
20260905060517 65 54 1.0 3.0 0.00 0.00 0.00 90 1013.0
20260905060037 66 83 1.0 3.0 0.00 0.00 0.00 90 1013.1
20260905055519 66 101 1.0 3.0 0.00 0.00 0.00 90 1013.2
20260905055020 66 71 1.0 3.0 0.00 0.00 0.00 89 1013.2
20260905054539 66 53 0.0 3.0 0.00 0.00 0.00 89 1013.3
20260905054020 66 0 1.0 2.0 0.00 0.00 0.00 89 1013.2
20260905053521 66 82 0.0 3.0 0.00 0.00 0.00 89 1013.3
20260905053041 66 0 0.0 3.0 0.00 0.00 0.00 89 1013.2
20260905052519 66 67 1.0 4.0 0.00 0.00 0.00 88 1013.2
20260905052017 67 53 1.0 4.0 0.00 0.00 0.00 88 1013.1
20260905051540 67 65 1.0 4.0 0.00 0.00 0.00 89 1013.0
20260905051019 67 36 1.0 4.0 0.00 0.00 0.00 88 1013.1
20260905050517 67 36 1.0 3.0 0.00 0.00 0.00 88 1013.2
20260905050039 68 65 1.0 3.0 0.00 0.00 0.00 88 1013.1
20260905045518 68 75 1.0 4.0 0.00 0.00 0.00 89 1013.0
20260905045019 68 55 1.0 4.0 0.00 0.00 0.00 88 1013.1
20260905044543 68 104 1.0 3.0 0.00 0.00 0.00 87 1013.0
20260905044018 68 127 1.0 3.0 0.00 0.00 0.00 87 1013.2
20260905043520 68 49 1.0 3.0 0.00 0.00 0.00 86 1013.1
20260905043051 68 71 1.0 3.0 0.00 0.00 0.00 87 1012.8
20260905042519 69 61 1.0 3.0 0.00 0.00 0.00 86 1013.1
20260905042018 69 39 1.0 4.0 0.00 0.00 0.00 86 1013.0
20260905041537 69 40 1.0 4.0 0.00 0.00 0.00 85 1012.8
20260905041019 70 44 1.0 3.0 0.00 0.00 0.00 85 1012.9
20260905040519 70 60 1.0 3.0 0.00 0.00 0.00 85 1013.1
20260905040037 71 73 1.0 3.0 0.00 0.00 0.00 86 1012.9
20260905035518 71 63 1.0 4.0 0.00 0.00 0.00 85 1012.7
20260905035020 71 69 2.0 4.0 0.00 0.00 0.00 85 1012.8
20260905034537 71 82 2.0 4.0 0.00 0.00 0.00 84 1012.7
20260905034020 72 74 1.0 4.0 0.00 0.00 0.00 84 1012.8
20260905033519 72 56 1.0 4.0 0.00 0.00 0.00 84 1012.8
20260905033037 72 55 2.0 4.0 0.00 0.00 0.00 83 1012.7
20260905032520 73 41 1.0 4.0 0.00 0.00 0.00 83 1012.6
20260905032023 73 53 1.0 5.0 0.00 0.00 0.00 84 1012.4
20260905031542 74 44 2.0 5.0 0.00 0.00 0.00 83 1012.3
20260905031016 74 55 1.0 3.0 0.00 0.00 0.00 84 1012.1
20260905030520 74 53 1.0 4.0 0.00 0.00 0.00 83 1012.0
20260905030037 75 113 1.0 4.0 0.00 0.00 0.00 82 1011.9
20260905025517 75 0 1.0 3.0 0.00 0.00 0.00 82 1011.7
20260905025020 75 0 1.0 3.0 0.00 0.00 0.00 82 1011.6
20260905024537 75 30 1.0 3.0 0.00 0.00 0.00 82 1011.6
20260905024020 75 41 1.0 3.0 0.00 0.00 0.00 82 1011.6
20260905023520 75 69 1.0 4.0 0.00 0.00 0.00 82 1011.5
20260905023037 75 31 0.0 4.0 0.00 0.00 0.00 82 1011.6
20260905022518 75 0 0.0 2.0 0.00 0.00 0.00 82 1011.5
20260905022018 76 0 0.0 2.0 0.00 0.00 0.00 82 1011.3
20260905021537 75 88 0.0 2.0 0.00 0.00 0.00 82 1011.5
20260905021021 76 0 0.0 2.0 0.00 0.00 0.00 82 1011.4
20260905020518 76 95 0.0 2.0 0.00 0.00 0.00 81 1011.4
20260905020047 76 95 0.0 1.0 0.00 0.00 0.00 81 1011.3
20260905015517 76 97 0.0 1.0 0.00 0.00 0.00 81 1011.5
20260905015023 76 0 0.0 1.0 0.00 0.00 0.00 81 1011.3
20260905014537 76 0 0.0 1.0 0.00 0.00 0.00 80 1011.3
20260905014020 76 0 0.0 0.0 0.00 0.00 0.00 80 1011.3
20260905013522 76 0 0.0 0.0 0.00 0.00 0.00 81 1011.2
20260905013046 76 0 0.0 0.0 0.00 0.00 0.00 80 1011.2
20260905012518 76 0 0.0 1.0 0.00 0.00 0.00 80 1011.2
20260905012019 76 0 0.0 1.0 0.00 0.00 0.00 80 1010.9
20260905011617 77 0 0.0 1.0 0.00 0.00 0.00 80 1011.0
20260905011020 77 0 0.0 1.0 0.00 0.00 0.00 79 1011.0
20260905010520 77 0 0.0 0.0 0.00 0.00 0.00 79 1010.9
20260905010039 77 0 0.0 0.0 0.00 0.00 0.00 78 1011.0
20260905005517 78 0 0.0 1.0 0.00 0.00 0.00 78 1011.2
20260905005016 78 0 0.0 1.0 0.00 0.00 0.00 77 1011.0
20260905004539 78 0 0.0 1.0 0.00 0.00 0.00 77 1011.0
20260905004018 78 0 0.0 1.0 0.00 0.00 0.00 76 1010.9
20260905003521 78 0 0.0 0.0 0.00 0.00 0.00 76 1010.9
20260905003039 79 0 0.0 0.0 0.00 0.00 0.00 75 1010.7
20260905002520 79 0 0.0 0.0 0.00 0.00 0.00 75 1010.9
20260905002018 80 0 0.0 0.0 0.00 0.00 0.00 74 1010.7
20260905001549 80 0 0.0 0.0 0.00 0.00 0.00 73 1010.6
20260905001019 81 0 0.0 1.0 0.00 0.00 0.00 73 1010.8
20260905000520 81 0 0.0 1.0 0.00 0.00 0.00 74 1010.7
20260905000037 81 0 0.0 1.0 0.00 0.00 0.00 72 1010.7
20260904235517 81 0 0.0 1.0 0.00 0.00 0.00 72 1010.8
20260904235025 81 97 0.0 1.0 0.00 0.00 0.00 71 1010.8
20260904234541 81 97 0.0 1.0 0.00 0.00 0.00 71 1010.7
20260904234020 81 0 0.0 1.0 0.00 0.00 0.00 70 1010.7
20260904233520 81 0 0.0 1.0 0.00 0.00 0.00 70 1010.7
20260904233041 81 0 0.0 1.0 0.00 0.00 0.00 70 1010.8
20260904232520 81 0 0.0 1.0 0.00 0.00 0.00 71 1010.7
20260904232018 81 0 0.0 1.0 0.00 0.00 0.00 70 1010.6
20260904231539 82 0 0.0 1.0 0.00 0.00 0.00 70 1010.7
20260904231018 82 0 0.0 1.0 0.00 0.00 0.00 70 1010.6
20260904230518 82 0 0.0 2.0 0.00 0.00 0.00 69 1010.5
20260904230038 82 0 0.0 2.0 0.00 0.00 0.00 70 1010.6
20260904225522 82 0 0.0 2.0 0.00 0.00 0.00 70 1010.6
20260904225020 82 100 0.0 1.0 0.00 0.00 0.00 70 1010.7
20260904224543 82 0 0.0 1.0 0.00 0.00 0.00 70 1010.6
20260904224018 82 0 0.0 2.0 0.00 0.00 0.00 70 1010.5
20260904223524 82 0 0.0 2.0 0.00 0.00 0.00 71 1010.4
20260904223042 82 0 0.0 1.0 0.00 0.00 0.00 71 1010.3
20260904222523 82 0 0.0 2.0 0.00 0.00 0.00 70 1010.5
20260904222020 82 74 0.0 2.0 0.00 0.00 0.00 70 1010.4
20260904221541 82 0 0.0 2.0 0.00 0.00 0.00 70 1010.3
20260904221020 82 0 0.0 2.0 0.00 0.00 0.00 71 1010.4
20260904220519 82 97 0.0 2.0 0.00 0.00 0.00 71 1010.3
20260904220044 82 97 0.0 2.0 0.00 0.00 0.00 70 1010.4
20260904215518 82 98 0.0 2.0 0.00 0.00 0.00 74 1010.5
20260904215019 82 98 0.0 2.0 0.00 0.00 0.00 72 1010.3
20260904214540 82 0 1.0 2.0 0.00 0.00 0.00 73 1010.4
20260904214024 82 115 0.0 2.0 0.00 0.00 0.00 75 1010.4
20260904213521 82 0 0.0 2.0 0.00 0.00 0.00 73 1010.4
20260904213043 82 122 0.0 2.0 0.00 0.00 0.00 74 1010.4
20260904212519 83 0 0.0 2.0 0.00 0.00 0.00 75 1010.3
20260904212023 83 0 1.0 2.0 0.00 0.00 0.00 73 1010.3
20260904211542 82 0 0.0 3.0 0.00 0.00 0.00 75 1010.2
20260904211021 82 0 0.0 3.0 0.00 0.00 0.00 74 1010.3
20260904210520 82 101 1.0 3.0 0.00 0.00 0.00 74 1010.2
20260904210038 82 98 1.0 3.0 0.00 0.00 0.00 73 1010.1
20260904205522 82 121 1.0 3.0 0.00 0.00 0.00 74 1010.2
20260904205017 82 119 1.0 3.0 0.00 0.00 0.00 73 1010.3
20260904204541 82 0 0.0 3.0 0.00 0.00 0.00 73 1010.3
20260904204017 82 0 1.0 3.0 0.00 0.00 0.00 74 1010.3
20260904203524 82 96 0.0 3.0 0.00 0.00 0.00 74 1010.1
20260904203037 82 0 1.0 3.0 0.00 0.00 0.00 75 1010.3
20260904202518 82 109 0.0 2.0 0.00 0.00 0.00 74 1010.4
20260904202017 82 79 1.0 3.0 0.00 0.00 0.00 76 1010.2
20260904201541 81 82 1.0 3.0 0.00 0.00 0.00 76 1010.3
20260904201017 81 65 1.0 3.0 0.00 0.00 0.00 74 1010.3
20260904200519 81 86 1.0 3.0 0.00 0.00 0.00 75 1010.3
20260904200039 81 69 1.0 3.0 0.00 0.00 0.00 76 1010.3
20260904195521 81 59 1.0 2.0 0.00 0.00 0.00 77 1010.3
20260904195019 81 77 1.0 2.0 0.00 0.00 0.00 76 1010.2
20260904194547 81 34 1.0 3.0 0.00 0.00 0.00 76 1010.3
20260904194017 80 73 1.0 3.0 0.00 0.00 0.00 78 1010.3
20260904193525 80 108 1.0 3.0 0.00 0.00 0.00 78 1010.3
20260904193043 80 88 1.0 3.0 0.00 0.00 0.00 76 1010.4
20260904192517 80 96 1.0 3.0 0.00 0.00 0.00 77 1010.5
20260904192020 80 101 1.0 3.0 0.00 0.00 0.00 79 1010.5
20260904191538 80 0 1.0 3.0 0.00 0.00 0.00 78 1010.6
20260904191020 79 101 1.0 3.0 0.00 0.00 0.00 78 1010.6
20260904190520 79 0 1.0 3.0 0.00 0.00 0.00 79 1010.6
20260904190039 79 107 1.0 3.0 0.00 0.00 0.00 79 1010.6
20260904185519 79 0 0.0 3.0 0.00 0.00 0.00 78 1010.7
20260904185021 79 82 1.0 6.0 0.00 0.00 0.00 80 1010.7
20260904184539 78 95 1.0 6.0 0.00 0.00 0.00 81 1010.7
20260904184020 78 70 1.0 3.0 0.00 0.00 0.00 81 1010.7
20260904183521 78 69 0.0 3.0 0.00 0.00 0.00 81 1010.8
20260904183102 78 71 1.0 3.0 0.00 0.00 0.00 81 1010.9
20260904182520 78 63 0.0 3.0 0.00 0.00 0.00 80 1010.7
20260904182025 78 79 1.0 3.0 0.00 0.00 0.00 82 1010.6
20260904181555 77 69 1.0 3.0 0.00 0.00 0.00 82 1010.7
20260904181020 77 80 1.0 3.0 0.00 0.00 0.00 84 1010.6
20260904180522 76 92 1.0 3.0 0.00 0.00 0.00 83 1010.6
20260904180043 76 92 1.0 3.0 0.00 0.00 0.00 85 1010.6
20260904175520 76 55 1.0 3.0 0.00 0.00 0.00 85 1010.6